WJA591 CYEG-CYYC

Flight info

Callsign WJA591
Flight time 0h 29m
Altitude 22000
Route OLIMI Q814 ADVOX ADVOX9
Aircraft B738/M-SDE2E3FGHIRWXY/LB1

Departure

Time 2026-05-06 01:37
Airport Edmonton International Airport (CYEG)

Arrival

Time 2026-05-06 02:07
Airport Calgary International Airport (CYYC)
Time Latitude Longitude Altitude Speed Heading
2026-05-06 01:25 53.30865 -113.58601 2386 ft 0 kts 86°
2026-05-06 01:31 53.30864 -113.58633 2383 ft 4 kts 86°
2026-05-06 01:31 53.30862 -113.58678 2389 ft 4 kts 86°
2026-05-06 01:31 53.30860 -113.58723 2383 ft 4 kts 86°
2026-05-06 01:31 53.30859 -113.58759 2383 ft 4 kts 104°
2026-05-06 01:32 53.30872 -113.58788 2383 ft 4 kts 166°
2026-05-06 01:32 53.30897 -113.58793 2387 ft 4 kts 176°
2026-05-06 01:32 53.30904 -113.58794 2383 ft 0 kts 176°
2026-05-06 01:34 53.30902 -113.58794 2383 ft 1 kts 176°
2026-05-06 01:34 53.30868 -113.58812 2385 ft 9 kts 219°
2026-05-06 01:35 53.30852 -113.58947 2383 ft 16 kts 265°
2026-05-06 01:35 53.30843 -113.59165 2383 ft 19 kts 265°
2026-05-06 01:35 53.30830 -113.59376 2383 ft 11 kts 270°
2026-05-06 01:35 53.30857 -113.59466 2383 ft 7 kts 312°
2026-05-06 01:36 53.30902 -113.59540 2384 ft 11 kts 329°
2026-05-06 01:36 53.30959 -113.59535 2384 ft 10 kts 26°
2026-05-06 01:36 53.31144 -113.59321 2385 ft 66 kts 34°
2026-05-06 01:36 53.31707 -113.58660 2384 ft 130 kts 35°
2026-05-06 01:37 53.32580 -113.57615 2493 ft 173 kts 38°
2026-05-06 01:37 53.33610 -113.56415 3127 ft 185 kts 35°
2026-05-06 01:37 53.34681 -113.55163 3921 ft 191 kts 37°
2026-05-06 01:37 53.35813 -113.53827 4359 ft 207 kts 36°
2026-05-06 01:38 53.37038 -113.52415 4787 ft 219 kts 35°
2026-05-06 01:38 53.38350 -113.50974 5123 ft 236 kts 32°
2026-05-06 01:38 53.39918 -113.50187 5742 ft 245 kts 359°
2026-05-06 01:38 53.41624 -113.51029 6033 ft 273 kts 325°
2026-05-06 01:39 53.42784 -113.53517 6800 ft 279 kts 292°
2026-05-06 01:39 53.43130 -113.56725 7562 ft 284 kts 266°
2026-05-06 01:39 53.42563 -113.59906 8306 ft 294 kts 242°
2026-05-06 01:39 53.41212 -113.62442 9311 ft 292 kts 218°
2026-05-06 01:40 53.39459 -113.64187 10133 ft 297 kts 209°
2026-05-06 01:40 53.37552 -113.65762 10457 ft 318 kts 207°
2026-05-06 01:40 53.35476 -113.67402 10637 ft 341 kts 207°
2026-05-06 01:40 53.33258 -113.69147 10808 ft 363 kts 207°
2026-05-06 01:41 53.30922 -113.71000 11166 ft 378 kts 207°
2026-05-06 01:41 53.28527 -113.72915 11705 ft 385 kts 208°
2026-05-06 01:41 53.26094 -113.74875 12313 ft 392 kts 208°
2026-05-06 01:41 53.23620 -113.76878 12956 ft 398 kts 209°
2026-05-06 01:42 53.21102 -113.78910 13592 ft 405 kts 209°
2026-05-06 01:42 53.18544 -113.80972 14199 ft 412 kts 209°
2026-05-06 01:42 53.15949 -113.83068 14852 ft 416 kts 210°
2026-05-06 01:42 53.13329 -113.85188 15525 ft 421 kts 210°
2026-05-06 01:43 53.10685 -113.87330 16174 ft 425 kts 210°
2026-05-06 01:43 53.08007 -113.89499 16773 ft 432 kts 210°
2026-05-06 01:43 53.05274 -113.91712 17320 ft 439 kts 210°
2026-05-06 01:43 53.02512 -113.93945 17970 ft 444 kts 210°
2026-05-06 01:44 52.99716 -113.96201 18572 ft 449 kts 210°
2026-05-06 01:44 52.96891 -113.98477 19111 ft 453 kts 210°
2026-05-06 01:44 52.94066 -114.00746 19849 ft 449 kts 210°
2026-05-06 01:44 52.91247 -114.03010 20450 ft 452 kts 210°
2026-05-06 01:45 52.88392 -114.05304 20902 ft 459 kts 210°
2026-05-06 01:45 52.85539 -114.07592 21373 ft 464 kts 210°
2026-05-06 01:45 52.82626 -114.09922 21946 ft 465 kts 210°
2026-05-06 01:45 52.79636 -114.12096 22169 ft 476 kts 204°
2026-05-06 01:46 52.76467 -114.13926 22211 ft 488 kts 201°
2026-05-06 01:46 52.73193 -114.15657 22208 ft 499 kts 200°
2026-05-06 01:46 52.69854 -114.17373 22208 ft 506 kts 200°
2026-05-06 01:46 52.66491 -114.19109 22172 ft 505 kts 200°
2026-05-06 01:47 52.63150 -114.20860 22179 ft 504 kts 201°
2026-05-06 01:47 52.59814 -114.22635 22162 ft 502 kts 201°
2026-05-06 01:47 52.56506 -114.24415 22178 ft 500 kts 201°
2026-05-06 01:47 52.53201 -114.26202 22173 ft 499 kts 201°
2026-05-06 01:48 52.49902 -114.27988 22172 ft 499 kts 201°
2026-05-06 01:48 52.46610 -114.29767 22188 ft 498 kts 201°
2026-05-06 01:48 52.43316 -114.31543 22185 ft 499 kts 201°
2026-05-06 01:48 52.40011 -114.33320 22192 ft 500 kts 201°
2026-05-06 01:49 52.36705 -114.35093 22171 ft 501 kts 201°
2026-05-06 01:49 52.33393 -114.36866 22167 ft 501 kts 201°
2026-05-06 01:49 52.30072 -114.38639 22170 ft 502 kts 201°
2026-05-06 01:49 52.26749 -114.40412 22186 ft 502 kts 201°
2026-05-06 01:50 52.23429 -114.42180 22127 ft 502 kts 201°
2026-05-06 01:50 52.20111 -114.43944 22156 ft 501 kts 201°
2026-05-06 01:50 52.16841 -114.45681 22179 ft 501 kts 201°
2026-05-06 01:50 52.13525 -114.47440 22174 ft 501 kts 201°
2026-05-06 01:51 52.10211 -114.49196 22153 ft 501 kts 201°
2026-05-06 01:51 52.06888 -114.50953 22153 ft 501 kts 201°
2026-05-06 01:51 52.03573 -114.52703 22171 ft 501 kts 201°
2026-05-06 01:51 52.00250 -114.54455 22168 ft 502 kts 201°
2026-05-06 01:52 51.96932 -114.56203 22173 ft 502 kts 201°
2026-05-06 01:52 51.93610 -114.57951 22161 ft 502 kts 201°
2026-05-06 01:52 51.90296 -114.59692 22152 ft 498 kts 201°
2026-05-06 01:52 51.87028 -114.61404 21687 ft 489 kts 201°
2026-05-06 01:53 51.83808 -114.63090 21096 ft 483 kts 201°
2026-05-06 01:53 51.80630 -114.64753 20497 ft 478 kts 201°
2026-05-06 01:53 51.77481 -114.66400 19900 ft 473 kts 200°
2026-05-06 01:53 51.74359 -114.68028 19308 ft 469 kts 200°
2026-05-06 01:54 51.71179 -114.69154 18686 ft 470 kts 183°
2026-05-06 01:54 51.67952 -114.68646 18090 ft 465 kts 165°
2026-05-06 01:54 51.64952 -114.66853 17442 ft 456 kts 148°
2026-05-06 01:54 51.62333 -114.64063 16773 ft 449 kts 140°
2026-05-06 01:55 51.59814 -114.61112 16179 ft 446 kts 141°
2026-05-06 01:55 51.57274 -114.58274 15607 ft 443 kts 145°
2026-05-06 01:55 51.54608 -114.55846 15138 ft 437 kts 149°
2026-05-06 01:55 51.51923 -114.53616 14658 ft 432 kts 151°
2026-05-06 01:56 51.49245 -114.51463 14214 ft 427 kts 152°
2026-05-06 01:56 51.46599 -114.49352 13740 ft 422 kts 152°
2026-05-06 01:56 51.43978 -114.47254 13070 ft 421 kts 152°
2026-05-06 01:56 51.41363 -114.45151 12372 ft 418 kts 152°
2026-05-06 01:57 51.38805 -114.43086 11663 ft 406 kts 152°
2026-05-06 01:57 51.36325 -114.41079 11061 ft 393 kts 153°
2026-05-06 01:57 51.33952 -114.39158 10790 ft 373 kts 153°
2026-05-06 01:57 51.31731 -114.37360 10583 ft 352 kts 153°
2026-05-06 01:58 51.29599 -114.35636 10424 ft 334 kts 153°
2026-05-06 01:58 51.27579 -114.34003 10273 ft 318 kts 153°
2026-05-06 01:58 51.25654 -114.32450 10139 ft 303 kts 153°
2026-05-06 01:58 51.23791 -114.30948 10005 ft 296 kts 153°
2026-05-06 01:59 51.21977 -114.29487 9733 ft 288 kts 153°
2026-05-06 01:59 51.20215 -114.28070 9475 ft 279 kts 153°
2026-05-06 01:59 51.18503 -114.26693 9222 ft 274 kts 153°
2026-05-06 01:59 51.16804 -114.25329 8977 ft 273 kts 152°
2026-05-06 02:00 51.15098 -114.23959 8727 ft 277 kts 152°
2026-05-06 02:00 51.13359 -114.22564 8539 ft 281 kts 152°
2026-05-06 02:00 51.11632 -114.21179 8404 ft 273 kts 152°
2026-05-06 02:00 51.09980 -114.19857 8258 ft 259 kts 152°
2026-05-06 02:01 51.08400 -114.18595 8164 ft 250 kts 152°
2026-05-06 02:01 51.06870 -114.17373 8063 ft 243 kts 152°
2026-05-06 02:01 51.05865 -114.16605 7987 ft 242 kts 159°
2026-05-06 02:01 51.03624 -114.16248 7680 ft 244 kts 181°
2026-05-06 02:02 51.02497 -114.16282 7470 ft 246 kts 181°
2026-05-06 02:02 51.00247 -114.15878 7115 ft 241 kts 156°
2026-05-06 02:02 50.99304 -114.15004 6926 ft 235 kts 137°
2026-05-06 02:02 50.98087 -114.12305 6562 ft 224 kts 109°
2026-05-06 02:03 50.97822 -114.10714 6371 ft 219 kts 96°
2026-05-06 02:03 50.97809 -114.08347 6083 ft 213 kts 81°
2026-05-06 02:03 50.98227 -114.06114 5791 ft 206 kts 64°
2026-05-06 02:03 50.98997 -114.04327 5644 ft 189 kts 46°
2026-05-06 02:04 51.00007 -114.03118 5460 ft 175 kts 30°
2026-05-06 02:04 51.01116 -114.02506 5217 ft 163 kts 14°
2026-05-06 02:04 51.02237 -114.02238 4971 ft 163 kts
2026-05-06 02:04 51.03387 -114.02205 4678 ft 166 kts
2026-05-06 02:05 51.04509 -114.02173 4542 ft 157 kts
2026-05-06 02:05 51.05591 -114.02116 4380 ft 153 kts
2026-05-06 02:05 51.06635 -114.02138 4243 ft 152 kts
2026-05-06 02:05 51.07708 -114.02154 4027 ft 155 kts
2026-05-06 02:06 51.08802 -114.02126 3810 ft 158 kts
2026-05-06 02:06 51.09912 -114.02143 3605 ft 161 kts
2026-05-06 02:06 51.10966 -114.02140 3559 ft 135 kts 360°
2026-05-06 02:06 51.11745 -114.02133 3556 ft 78 kts
2026-05-06 02:07 51.12118 -114.02132 3562 ft 44 kts 358°
2026-05-06 02:07 51.12349 -114.02028 3558 ft 16 kts 31°
2026-05-06 02:07 51.12414 -114.01970 3558 ft 10 kts 29°
2026-05-06 02:07 51.12497 -114.01890 3558 ft 20 kts 31°
2026-05-06 02:08 51.12606 -114.01801 3558 ft 16 kts 15°
2026-05-06 02:08 51.12710 -114.01795 3558 ft 14 kts
2026-05-06 02:08 51.12806 -114.01793 3558 ft 15 kts
2026-05-06 02:08 51.12948 -114.01792 3558 ft 22 kts 359°
2026-05-06 02:09 51.13077 -114.01781 3558 ft 15 kts 26°
2026-05-06 02:09 51.13163 -114.01721 3558 ft 13 kts
2026-05-06 02:09 51.13247 -114.01721 3558 ft 11 kts
2026-05-06 02:09 51.13276 -114.01667 3558 ft 4 kts 79°
2026-05-06 02:10 51.13278 -114.01632 3558 ft 3 kts 90°
2026-05-06 02:10 51.13278 -114.01605 3558 ft 2 kts 90°
2026-05-06 02:10 51.13278 -114.01595 3558 ft 0 kts 90°
2026-05-06 02:10 51.13278 -114.01592 3558 ft 0 kts 90°